Green Bay, WI

10:48 AM CST on January 19, 2018 (GMT -0600)
Austin Straubel International

Weather History for KGRB - August, 2014

Change the Weather History Date:

Wednesday, August 6, 2014

  Actual Average Record
Temperature  
Mean Temperature 70 °F 68 °F  
Max Temperature 82 °F 79 °F 99 °F (1947)
Min Temperature 57 °F 58 °F 47 °F (1976)
Degree Days  
Heating Degree Days 0 1  
Month to date heating degree days 0 6  
Since 1 June heating degree days 46 121  
Since 1 July heating degree days 15 29  
Cooling Degree Days 5 4  
Month to date cooling degree days 31 25  
Year to date cooling degree days 252 276  
Since 1 June cooling degree days 236 258  
Growing Degree Days 20 (Base 50)    
Moisture  
Dew Point 57 °F    
Average Humidity 65    
Maximum Humidity 93    
Minimum Humidity 37    
Precipitation  
Precipitation 0.00 in 0.11 in 1.90 in (1998)
Month to date precipitation 0.03 0.65  
Year to date precipitation 15.95 17.68  
Snow  
Snow 0.00 in 0.00 in 0.00 in ()
Month to date snowfall 0.0 0.0  
Since 1 June snowfall 0.0 0.0  
Since 1 July snowfall 0.0 0.0  
Snow Depth 0.00 in    
Sea Level Pressure  
Sea Level Pressure 30.07 in    
Wind  
Wind Speed 3 mph (East)    
Max Wind Speed 12 mph    
Max Gust Speed 16 mph    
Visibility 10 miles    
Events      
T = Trace of Precipitation, MM = Missing Value Source: NWS Daily Summary

Daily Weather History Graph

Daily Weather History Graph

Search for Another Location

Airport or City:

Trip Planner

Search our weather history database for the weather conditions in past years. The results will help you decide how hot, cold, wet, or windy it might be!

Date:

Astronomy

Aug. 06, 2014 Rise Set
Actual Time 5:44 AM CDT 8:11 PM CDT
Civil Twilight 5:12 AM CDT 8:43 PM CDT
Nautical Twilight 4:31 AM CDT 9:24 PM CDT
Astronomical Twilight 3:45 AM CDT 10:09 PM CDT
Moon 4:29 PM CDT (8/6) 1:18 AM CDT (8/6)
Length of Visible Light 15h 31m
Length of Day
14h 26m
Waxing Gibbous, 78% of the Moon is Illuminated
Aug 6
Waxing Gibbous
Aug 10
Full
Aug 17
Last Quarter
Aug 25
New
Sep 2
First Quarter

Hourly Weather History & Observations

Time (CDT) Temp. Heat Index Dew Point Humidity Pressure Visibility Wind Dir Wind Speed Gust Speed Precip Events Conditions
12:53 AM 57.9 °F - 55.9 °F 93% 30.07 in 10.0 mi Calm Calm - N/A   Partly Cloudy
1:53 AM 57.9 °F - 55.9 °F 93% 30.06 in 10.0 mi Calm Calm - N/A   Partly Cloudy
2:53 AM 57.9 °F - 55.0 °F 90% 30.06 in 10.0 mi Calm Calm - N/A   Mostly Cloudy
3:53 AM 59.0 °F - 55.9 °F 90% 30.06 in 10.0 mi Calm Calm - N/A   Overcast
4:53 AM 57.9 °F - 55.0 °F 90% 30.05 in 10.0 mi Calm Calm - N/A   Scattered Clouds
5:53 AM 57.0 °F - 55.0 °F 93% 30.06 in 10.0 mi Calm Calm - N/A   Clear
6:53 AM 60.1 °F - 55.9 °F 86% 30.08 in 10.0 mi South 3.5 mph - N/A   Mostly Cloudy
7:53 AM 64.9 °F - 59.0 °F 81% 30.09 in 10.0 mi SSW 5.8 mph - N/A   Scattered Clouds
8:53 AM 70.0 °F - 62.1 °F 76% 30.09 in 10.0 mi West 5.8 mph - N/A   Clear
9:53 AM 73.0 °F - 62.1 °F 68% 30.08 in 10.0 mi Variable 4.6 mph - N/A   Partly Cloudy
10:53 AM 75.0 °F - 61.0 °F 62% 30.08 in 10.0 mi Variable 3.5 mph - N/A   Clear
12:53 PM 80.1 °F 80.4 °F 57.0 °F 45% 30.07 in 10.0 mi North - - N/A   Clear
1:53 PM 80.6 °F 80.8 °F 57.2 °F 45% 30.07 in 10.0 mi WNW 4.6 mph - N/A   Clear
2:53 PM 80.1 °F 80.1 °F 55.0 °F 42% 30.06 in 10.0 mi NNW 4.6 mph - N/A   Clear
3:53 PM 82.0 °F 81.3 °F 54.0 °F 38% 30.06 in 10.0 mi North 4.6 mph - N/A   Clear
4:53 PM 77.0 °F - 57.0 °F 50% 30.06 in 10.0 mi ENE 9.2 mph - N/A   Partly Cloudy
5:53 PM 79.0 °F - 57.0 °F 47% 30.06 in 10.0 mi NE 4.6 mph - N/A   Clear
6:53 PM 75.9 °F - 57.9 °F 54% 30.06 in 10.0 mi East 8.1 mph - N/A   Clear
7:53 PM 72.0 °F - 57.9 °F 61% 30.07 in 10.0 mi SE 5.8 mph - N/A   Clear
8:53 PM 66.9 °F - 57.0 °F 70% 30.08 in 10.0 mi SE 6.9 mph - N/A   Clear
9:53 PM 64.9 °F - 55.9 °F 73% 30.09 in 10.0 mi Calm Calm - N/A   Clear
10:53 PM 61.0 °F - 55.9 °F 83% 30.10 in 10.0 mi Calm Calm - N/A   Clear
11:53 PM 59.0 °F - 55.9 °F 90% 30.11 in 10.0 mi Calm Calm - N/A   Clear